Home > Weather > Shawinigan > Past weeks

Flag for Canada Past Weather in Shawinigan, Quebec, Canada — Yesterday and Last 2 Weeks

Now
54 °F

Cool.


Feels Like: 54 °F
Forecast: 54 / 81 °F
Wind: 1 mph from Northeast

Location: Shawinigan CS

Current Time: Jun 25, 2016 at 6:35:38 AM

Latest Report: Jun 25, 2016 at 6:00 AM


Visibility: N/A

Pressure: 30.13 "Hg

Humidity: 88%

Dew Point: 50 °F

Location of ShawiniganLocation

Past Weather in Shawinigan — Graph

°F

Shawinigan Temperature Yesterday

Maximum temperature yesterday: 75 °F (at 6:00 PM)
Minimum temperature yesterday: 46 °F (at 3:00 AM)
Average temperature yesterday: 62 °F

High & Low Weather Summary for the Past Weeks

 TemperatureHumidityPressure
High88 °F (Jun 20, 3:00 PM)96% (Jun 11, 6:00 AM)30.21 "Hg (Jun 11, 6:00 AM)
Low46 °F (Jun 24, 3:00 AM)19% (Jun 17, 4:00 PM)29.38 "Hg (Jun 12, 4:00 AM)
Average63 °F61%29.86 "Hg
* Reported Jun 10 5:00 AM — Jun 25 5:00 AM, Shawinigan, Weather by CustomWeather, © 2016

Note: Actual official high and low records may vary slightly from our data, if they occured in-between our weather recording intervals... More about our weather records

Advertising

Shawinigan Weather History for the Previous 24 Hours

Scroll right to see more
 ConditionsComfort  
Time TempWeatherWind HumidityBarometerVisibility
5:00 AM
Sat, Jun 25
53 °FCool.No wind89%30.11 "HgN/A
4:00 AM54 °FCool.1 mph88%30.10 "HgN/A
3:00 AM55 °FCool.2 mph86%30.09 "HgN/A
2:00 AM56 °FCool.2 mph90%30.09 "HgN/A
1:00 AM58 °FCool.2 mph81%30.08 "HgN/A
12:00 AM60 °FCool.No wind82%30.08 "HgN/A
11:00 PM
Fri, Jun 24
64 °FMild.5 mph65%30.08 "HgN/A
10:00 PM67 °FMild.5 mph57%30.08 "HgN/A
9:00 PM69 °FMild.5 mph49%30.06 "HgN/A
8:00 PM72 °FMild.7 mph43%30.06 "HgN/A
7:00 PM72 °FMild.9 mph42%30.05 "HgN/A
6:00 PM75 °FMild.10 mph38%30.05 "HgN/A
5:00 PM75 °FMild.10 mph37%30.05 "HgN/A
4:00 PM74 °FMild.9 mph40%30.05 "HgN/A
3:00 PM73 °FMild.8 mph41%30.06 "HgN/A
2:00 PM72 °FMild.12 mph40%30.05 "HgN/A
1:00 PM71 °FMild.7 mph38%30.06 "HgN/A
12:00 PM68 °FMild.6 mph41%30.07 "HgN/A
11:00 AM65 °FMild.6 mph45%30.09 "HgN/A
10:00 AM63 °FMild.3 mph53%30.10 "HgN/A
9:00 AM60 °FRefreshingly cool.2 mph56%30.10 "HgN/A
8:00 AM56 °FCool.2 mph69%30.08 "HgN/A
7:00 AM51 °FCool.3 mph72%30.06 "HgN/A
6:00 AM47 °FCool.1 mph83%30.04 "HgN/A
Weather by CustomWeather, © 2016

See weather overviewHow to use our weather pages